• Join FlightAware (Why Join?)
  • Login
  • US Flag 
12:50AM EDT


 

Airport Tracker/Info


-or-


 

Live Flight TrackerFlight Track Log ✈ FDX1958 ✈ 03-Jul-2013 ✈ KEWR - KSYR

Flight Track Log - Related Links

Times and Time Zones

All times are in EDT time to prevent confusion due to time zone crossing. See the FDX1958 flight status page for this flight to view local times or setup timezone preferences in your user account.

Time Position Orientation Groundspeed Altitude Reporting Facility
EDT Latitude Longitude Course Direction KTS MPH feet Rate Location/Type
04:27AM 40.6804 -74.1759 197° South 140 161 300  Level FlightAware ADS-B
04:27AM 40.6731 -74.1798 202° Southwest 153 176 1,000 3,120 Climbing FlightAware ADS-B
04:27AM 40.6678 -74.1811 191° South 158 182 1,300 1,500 Climbing FlightAware ADS-B
04:27AM 40.6644 -74.1812 181° South 171 197 1,300 960 Level FlightAware ADS-B
04:27AM 40.6575 -74.1802 174° South 188 216 1,500 1,320 Climbing FlightAware ADS-B
04:27AM 40.6481 -74.1781 170° South 206 237 1,700 1,560 Climbing FlightAware ADS-B
04:27AM 40.6436 -74.1777 176° South 208 239 1,900 2,100 Climbing FlightAware ADS-B
04:28AM 40.6290 -74.1807 189° South 209 241 2,400 1,800 Climbing FlightAware ADS-B
04:28AM 40.6234 -74.1841 205° Southwest 230 265 2,500 1,200 Climbing FlightAware ADS-B
04:28AM 40.6195 -74.1871 210° Southwest 236 272 2,600 1,320 Climbing FlightAware ADS-B
04:28AM 40.6156 -74.1915 221° Southwest 243 280 2,700 660 Climbing FlightAware ADS-B
04:28AM 40.6115 -74.1969 225° Southwest 247 284 2,700  Level FlightAware ADS-B
04:28AM 40.6086 -74.2016 231° Southwest 247 284 2,700  Level FlightAware ADS-B
04:28AM 40.6073 -74.2054 246° West 246 283 2,700  Level FlightAware ADS-B
04:28AM 40.6057 -74.2094 242° Southwest 246 283 2,700  Level FlightAware ADS-B
04:28AM 40.6040 -74.2164 252° West 244 281 2,700  Level FlightAware ADS-B
04:28AM 40.6035 -74.2295 267° West 242 278 2,700 -420 Level FlightAware ADS-B
04:29AM 40.6055 -74.2396 285° West 246 283 2,600 -420 Descending FlightAware ADS-B
04:29AM 40.6104 -74.2501 302° West 251 289 2,600 600 Level FlightAware ADS-B
04:29AM 40.6125 -74.2524 320° Northwest 247 284 2,700 1,500 Climbing FlightAware ADS-B
04:29AM 40.6139 -74.2546 310° West 262 302 2,700 1,980 Level FlightAware ADS-B
04:29AM 40.6154 -74.2557 331° Northwest 263 303 2,800 4,260 Climbing FlightAware ADS-B
04:29AM 40.6218 -74.2610 328° Northwest 269 310 3,200 3,960 Climbing FlightAware ADS-B
04:29AM 40.6279 -74.2655 331° Northwest 265 305 3,600 3,720 Climbing FlightAware ADS-B
04:29AM 40.6387 -74.2721 335° Northwest 268 308 4,200 3,480 Climbing FlightAware ADS-B
04:29AM 40.6415 -74.2743 329° Northwest 267 307 4,300 2,220 Climbing FlightAware ADS-B
04:29AM 40.6484 -74.2785 335° Northwest 277 319 4,500 3,180 Climbing FlightAware ADS-B
04:29AM 40.6594 -74.2844 338° Northwest 267 307 5,100 3,480 Climbing FlightAware ADS-B
04:29AM 40.6629 -74.2862 339° North 280 322 5,200 2,400 Climbing FlightAware ADS-B
04:29AM 40.6647 -74.2869 344° North 280 322 5,300 3,600 Climbing FlightAware ADS-B
04:30AM 40.6815 -74.2951 340° North 280 322 6,100 3,420 Climbing FlightAware ADS-B
04:30AM 40.7000 -74.3043 339° North 285 328 6,900 3,060 Climbing FlightAware ADS-B
04:30AM 40.7186 -74.3140 338° Northwest 285 328 7,700 3,120 Climbing FlightAware ADS-B
04:30AM 40.7228 -74.3165 336° Northwest 285 328 7,900 2,400 Climbing FlightAware ADS-B
04:30AM 40.7377 -74.3243 338° Northwest 295 339 8,300 2,640 Climbing FlightAware ADS-B
04:31AM 40.7574 -74.3343 339° North 296 341 9,100 3,000 Climbing FlightAware ADS-B
04:31AM 40.7768 -74.3444 338° Northwest 301 346 9,800 2,040 Climbing FlightAware ADS-B
04:31AM 40.7908 -74.3523 337° Northwest 287 330 10,000 780 Climbing FlightAware ADS-B
04:31AM 40.7974 -74.3553 341° North 325 374 10,000 300 Level FlightAware ADS-B
04:32AM 40.8439 -74.3802 338° Northwest 375 432 10,200 1,140 Climbing FlightAware ADS-B
04:32AM 40.8968 -74.4073 339° North 393 452 11,200 2,280 Climbing FlightAware ADS-B
04:33AM 40.9304 -74.4272 336° Northwest 392 451 12,200 2,340 Climbing FlightAware ADS-B
04:33AM 40.9647 -74.4490 334° Northwest 401 461 12,800 2,100 Climbing FlightAware ADS-B
04:33AM 41.0134 -74.4873 329° Northwest 405 466 14,000 2,280 Climbing FlightAware ADS-B
04:34AM 41.0628 -74.5258 330° Northwest 412 474 15,100 2,160 Climbing FlightAware ADS-B
04:34AM 41.1129 -74.5645 330° Northwest 417 480 16,200 2,940 Climbing FlightAware ADS-B
04:35AM 41.1619 -74.6018 330° Northwest 397 457 18,100 2,880 Climbing FlightAware ADS-B
04:35AM 41.2107 -74.6400 330° Northwest 404 465 19,100 1,920 Climbing FlightAware ADS-B
04:36AM 41.2603 -74.6777 330° Northwest 410 472 20,100 1,920 Climbing FlightAware ADS-B
04:36AM 41.3099 -74.7170 329° Northwest 411 473 21,100 1,380 Climbing FlightAware ADS-B
04:37AM 41.3607 -74.7564 330° Northwest 430 495 21,500 780 Climbing FlightAware ADS-B
04:37AM 41.4137 -74.7975 330° Northwest 449 517 21,900 480 Climbing FlightAware ADS-B
04:38AM 41.4691 -74.8401 330° Northwest 459 528 22,000 60 Climbing FlightAware ADS-B
04:39AM 41.5245 -74.8832 330° Northwest 461 531 22,000  Level FlightAware ADS-B
04:39AM 41.5810 -74.9279 329° Northwest 463 533 22,000  Level FlightAware ADS-B
04:40AM 41.6395 -74.9741 329° Northwest 459 528 22,000  Level FlightAware ADS-B
04:41AM 41.7490 -75.0600 330° Northwest 457 526 22,000  Level FlightAware
04:41AM 41.8050 -75.1050 329° Northwest 457 526 22,000  Level FlightAware
04:42AM 41.8850 -75.1670 330° Northwest 453 521 22,000  Level FlightAware
04:42AM 41.9580 -75.2260 329° Northwest 453 521 22,000  Level FlightAware
04:43AM 42.0310 -75.2840 329° Northwest 459 528 22,000  Level FlightAware
04:44AM 42.1030 -75.3410 330° Northwest 457 526 22,000 -1,080 Level FlightAware
04:45AM 42.1830 -75.4060 329° Northwest 450 518 20,500 -2,340 Descending FlightAware
04:45AM 42.2430 -75.4530 330° Northwest 446 513 19,000 -2,460 Descending FlightAware
04:46AM 42.3150 -75.5120 329° Northwest 427 491 17,400 -1,500 Descending FlightAware
04:46AM 42.3680 -75.5550 329° Northwest 425 489 17,100 -240 Descending FlightAware
04:47AM 42.4380 -75.6120 329° Northwest 425 489 17,100  Level FlightAware
04:48AM 42.4880 -75.6530 329° Northwest 425 489 17,100 -4,500 Level FlightAware
04:49AM 42.5880 -75.7330 330° Northwest 383 441 10,800 -4,680 Descending FlightAware
04:49AM 42.6470 -75.7810 329° Northwest 375 432 10,300 -840 Descending FlightAware
04:50AM 42.6920 -75.8110 334° Northwest 337 388 9,900 -360 Descending FlightAware
04:50AM 42.7210 -75.8270 338° Northwest 291 335 10,000 -900 Climbing FlightAware
04:51AM 42.7530 -75.8420 341° North 276 318 9,200 -2,400 Descending FlightAware
04:51AM 42.7870 -75.8570 342° North 278 320 7,900 -2,580 Descending FlightAware
04:51AM 42.8200 -75.8730 340° North 275 316 6,800 -2,520 Descending FlightAware
04:52AM 42.8550 -75.8890 341° North 277 319 5,600 -2,640 Descending FlightAware
04:52AM 42.8750 -75.8980 342° North 277 319 4,900 -2,100 Descending FlightAware
04:53AM 42.9090 -75.9140 341° North 273 314 4,100 -1,440 Descending FlightAware
04:53AM 42.9240 -75.9210 341° North 270 311 3,900 -1,020 Descending FlightAware
04:53AM 42.9570 -75.9370 340° North 253 291 3,400 -720 Descending FlightAware
04:54AM 42.9830 -75.9490 341° North 232 267 3,300 -240 Descending FlightAware
04:54AM 43.0080 -75.9610 341° North 197 227 3,200 -600 Descending FlightAware
04:55AM 43.0350 -75.9730 342° North 176 203 2,700 -900 Descending FlightAware
04:55AM 43.0520 -75.9750 355° North 169 194 2,400 -1,020 Descending FlightAware
04:55AM 43.0600 -75.9760 355° North 170 196 2,200 -960 Descending FlightAware
04:56AM 43.0830 -75.9780 356° North 178 205 1,800 -900 Descending FlightAware
04:56AM 43.1030 -75.9870 342° North 167 192 1,400 -600 Descending FlightAware
04:57AM 43.1110 -75.9990 312° West 164 189 1,400  Level FlightAware
04:57AM 43.1130 -76.0070 289° West 150 173 1,400 -540 Level FlightAware
04:57AM 43.1110 -76.0300 263° West 128 147 1,100 -600 Descending FlightAware
04:58AM 43.1110 -76.0520 270° West 128 147 900 -660 Descending FlightAware
04:58AM 43.1100 -76.0760 267° West 134 154 500 -480 Descending FlightAware
04:59AM 43.1090 -76.1030 267° West 136 157 400 -120 Descending FlightAware
04:59AM 43.1078 -76.1233 267° West 122 140 400  Level Boston Center
05:01AM 43.1112 -76.1063 124° Southeast  Level Estimated
05:08AM 43.1112 -76.1063 124° Southeast  Level Estimated
05:09AM 43.1112 -76.1063 124° Southeast  Level Estimated
05:10AM 43.1112 -76.1063 124° Southeast  Level Estimated
05:11AM 43.1112 -76.1063 124° Southeast  Level Estimated
05:12AM 43.1112 -76.1063 124° Southeast  Level Estimated
05:13AM 43.1112 -76.1063 124° Southeast  Level Estimated